Wind_Speed
18 20 19 19 20 19 21 23 25 30 31 28 26 15 3 2 6 13 11 15 14 5 3 4 4 4 8 13 10 4 2 3 3 1 3 2 1 2 3 2 1 1 1 1 2 1 2 4 4 3 2 3 3 2 2 4 3 3 3 3 5 4 1 2 5 5 6 9 9 9 9 7 3 3 5 6 4 4 5 4 3 3 4 4 3 2 3
18 19 19 18 19 18 19 21 23 26 27 27 21 8 3 4 4 13 18 11 12 4 5 4 5 6 9 13 8 4 4 2 3 3 5 4 2 4 4 3 2 0 1 3 1 2 1 1 1 3 3 2 1 1 3 5 4 1 2 4 4 3 2 2 3 4 5 6 6 6 4 3 4 3 5 8 9 8 6 4 2 2 4 7 6 2 2
18 18 19 18 18 18 18 19 21 23 24 24 16 3 3 5 3 5 13 11 7 3 5 4 5 7 9 11 8 2 1 3 2 3 5 5 2 4 4 3 3 1 1 3 2 1 1 1 2 1 3 3 0 2 3 2 2 4 6 5 3 2 3 3 2 2 2 2 2 3 3 3 6 7 6 8 11 10 7 3 2 1 4 5 4 3 3
17 17 19 17 17 18 18 18 19 21 22 23 15 4 3 4 2 3 5 5 4 4 5 5 6 6 8 8 7 6 3 3 4 2 4 3 0 3 6 4 2 1 2 3 2 3 3 2 1 1 2 3 3 2 2 1 2 6 6 4 2 1 2 3 3 4 3 3 4 6 6 5 7 11 12 11 12 12 7 1 1 3 2 2 1 8 9
17 17 19 17 17 18 18 17 18 19 21 23 15 4 3 2 2 3 2 2 5 5 4 5 5 6 7 4 4 4 2 4 6 5 3 1 1 3 5 4 3 2 3 3 5 5 1 1 1 2 3 2 3 5 6 6 4 2 2 4 2 1 2 5 6 5 5 6 8 10 9 7 9 11 12 11 10 8 7 4 4 5 7 4 2 11 11
17 17 18 17 16 17 17 18 18 18 20 20 10 2 3 2 3 3 4 2 3 3 5 7 7 10 9 3 3 6 4 5 6 3 1 1 1 3 2 3 5 3 3 3 3 3 3 1 1 2 3 3 3 4 6 5 4 5 2 4 3 1 2 5 6 7 8 8 8 9 9 9 9 8 12 15 16 14 7 4 3 2 8 8 9 12 11
16 16 17 17 16 16 17 18 18 18 20 16 5 3 3 3 3 5 7 6 5 6 10 13 11 10 7 2 4 8 5 4 4 2 4 5 3 2 2 5 5 4 4 3 1 2 1 1 2 3 2 4 4 3 3 4 5 6 2 2 3 1 2 5 7 8 9 10 9 8 7 9 10 13 17 15 15 18 17 14 11 7 8 11 11 12 9
16 15 15 15 15 15 17 18 18 19 20 12 2 4 3 4 3 5 6 6 6 7 9 11 10 6 2 0 4 7 5 6 6 2 3 2 5 5 2 5 5 5 5 3 2 3 3 4 1 0 2 4 2 1 1 2 5 7 3 2 3 2 0 4 5 6 8 9 9 6 6 10 14 17 17 16 16 18 17 15 12 9 10 12 12 10 6
16 15 14 14 14 15 16 17 18 19 18 10 3 3 7 9 9 8 5 4 5 6 6 7 7 6 3 1 3 5 6 8 6 3 1 3 5 2 4 5 6 5 4 2 5 5 3 4 2 4 5 4 3 3 2 2 2 4 3 1 2 2 0 2 2 3 6 9 7 7 7 9 14 15 16 15 14 13 12 12 11 8 7 8 9 7 4
16 15 13 12 13 14 15 16 17 18 17 11 4 6 10 13 12 9 4 4 4 5 6 6 5 4 4 4 6 5 6 8 6 2 1 3 2 3 3 5 5 4 4 0 3 5 5 5 5 2 3 4 4 5 4 5 4 2 1 1 1 1 1 1 2 2 5 8 8 10 7 6 8 9 10 11 11 11 12 12 14 12 7 4 3 3 3
17 14 12 11 13 14 14 13 15 16 17 14 6 7 10 11 9 6 4 4 4 5 6 5 5 5 6 9 10 7 6 7 4 1 1 1 1 1 1 2 3 4 3 3 4 5 5 4 6 5 5 6 5 4 7 8 5 1 1 0 1 2 1 2 2 0 4 8 7 7 5 5 2 5 5 8 10 13 14 12 13 13 7 3 3 5 6
15 13 11 11 12 13 12 12 13 14 15 14 8 7 10 12 9 5 2 3 5 5 5 5 7 10 11 15 15 10 9 10 5 5 4 2 3 4 3 0 2 1 2 3 3 4 3 2 4 4 5 6 7 7 6 5 2 2 2 2 1 1 2 3 1 0 2 5 5 4 3 2 2 4 4 6 7 10 13 12 13 11 6 4 7 10 11
14 12 11 11 12 12 12 11 11 12 13 14 11 9 11 13 9 3 2 4 5 4 5 8 11 12 12 14 16 15 15 9 4 7 5 3 2 1 1 1 2 0 3 3 3 5 4 4 2 2 3 4 5 5 5 4 3 3 6 3 1 2 2 3 1 2 1 3 4 2 2 1 3 4 6 6 5 5 8 9 11 10 5 3 7 10 10
14 11 10 10 11 11 12 11 11 12 13 13 13 12 12 11 7 4 2 2 4 5 6 7 8 10 12 13 13 15 16 7 6 8 5 4 1 3 2 1 1 3 3 3 3 4 1 4 2 0 2 4 3 3 4 5 4 5 6 4 2 4 2 2 2 2 2 2 2 1 2 1 4 5 4 6 5 4 5 5 6 7 5 4 6 8 7
14 12 10 9 9 11 11 11 10 11 13 12 13 13 11 10 9 7 3 2 4 5 4 4 5 9 12 12 11 12 11 4 5 5 3 4 4 2 4 2 5 5 3 2 2 0 2 2 1 1 1 1 1 2 3 3 3 3 5 6 1 4 3 3 3 1 2 4 2 2 1 1 2 4 8 7 6 6 5 4 3 5 5 4 6 7 7
14 13 11 9 8 10 11 10 9 11 12 12 13 12 8 6 8 8 5 2 2 4 3 4 9 10 8 8 10 9 8 6 1 3 4 4 4 1 4 1 5 3 1 0 0 1 2 2 1 1 1 1 1 1 1 1 1 1 3 5 2 4 5 4 4 2 3 5 3 0 2 3 4 6 9 6 7 9 7 3 2 4 4 4 7 7 6
14 13 11 8 7 9 11 10 9 10 12 11 12 12 8 3 7 9 5 2 2 5 7 9 11 8 4 5 8 6 5 5 3 2 3 3 3 1 2 3 4 0 2 1 1 1 2 4 2 1 1 2 2 1 1 1 2 1 2 5 5 3 4 3 1 1 3 5 3 1 1 2 5 7 7 4 7 9 7 2 1 2 2 4 6 8 6
13 11 9 7 7 10 11 10 9 10 11 11 11 12 10 4 5 7 4 3 3 4 6 10 10 6 4 6 7 5 5 6 3 1 2 3 3 1 2 2 4 2 3 1 1 2 3 3 1 1 1 2 2 1 1 1 1 1 2 2 2 2 3 3 2 2 3 3 3 2 1 2 5 7 7 2 5 6 4 2 3 2 3 4 6 8 6
11 10 8 7 8 9 10 10 10 9 10 11 11 11 10 4 3 5 4 3 3 4 7 12 13 9 7 8 6 4 6 8 5 2 3 2 1 2 4 1 2 2 2 0 0 2 3 1 0 0 1 2 1 2 2 1 0 1 1 1 1 2 2 2 2 2 1 0 2 2 0 3 4 6 7 2 4 3 2 3 3 3 4 5 6 7 6
11 10 8 6 7 8 9 9 10 9 9 10 11 12 10 4 1 4 5 3 3 5 9 12 12 10 10 9 6 6 7 7 4 1 1 1 1 2 4 2 1 2 1 1 1 2 2 1 0 1 1 2 2 1 1 1 1 1 2 2 1 2 2 0 1 1 2 1 1 3 0 3 5 4 3 3 3 4 4 3 3 5 6 6 6 6 6
10 9 8 7 7 7 7 9 9 9 8 9 10 11 9 3 2 4 6 6 4 3 5 9 11 14 15 13 12 13 12 9 6 1 1 1 1 3 1 2 2 1 1 1 1 1 1 1 2 1 1 1 0 2 1 2 1 2 1 3 1 0 1 3 3 2 2 2 2 2 2 2 2 1 3 3 2 4 5 5 4 5 5 5 5 6 6
10 10 10 9 9 7 6 8 10 8 7 8 9 8 8 6 4 5 7 7 6 7 12 18 21 24 25 23 21 21 20 16 11 5 4 2 2 3 2 3 3 0 1 1 1 0 2 2 2 1 1 1 1 2 2 3 2 1 1 2 0 2 2 4 2 1 2 3 3 3 3 1 5 5 5 5 5 5 6 7 5 5 5 4 4 6 6
10 11 11 10 10 8 7 8 11 10 7 7 7 6 9 11 9 7 8 8 8 11 18 23 23 20 20 19 19 19 18 15 10 9 9 4 2 3 2 2 3 2 1 2 1 0 2 2 0 1 1 1 0 2 3 2 1 2 1 2 1 2 4 5 4 3 4 5 4 4 4 5 7 7 7 7 8 7 7 7 5 4 5 5 5 6 5
10 12 12 10 10 10 9 9 12 11 8 7 7 8 11 12 9 9 8 5 3 5 9 11 8 7 9 12 13 14 14 11 6 7 9 6 3 2 1 2 1 2 2 2 1 1 1 1 1 1 1 1 1 0 2 2 0 2 1 3 2 4 5 5 4 5 5 4 4 6 6 6 6 8 8 8 8 7 6 6 5 5 5 5 6 6 5
11 12 11 9 9 9 9 10 11 11 8 7 7 8 9 9 6 6 6 4 3 2 4 4 5 9 12 12 13 16 14 11 11 7 1 3 1 2 2 1 1 2 1 1 2 2 1 2 2 0 0 1 1 1 0 0 1 2 3 2 2 4 4 4 5 5 4 5 6 7 7 6 6 6 6 6 7 6 6 6 6 6 6 6 6 6 6
11 11 9 8 9 9 9 9 10 11 9 8 8 8 9 10 9 6 5 5 4 3 3 4 7 10 15 13 12 15 13 15 19 14 6 7 10 6 8 3 1 1 1 1 1 1 2 2 1 2 1 0 2 1 1 1 1 1 2 2 3 3 4 4 5 5 5 6 7 7 7 7 7 7 6 5 6 6 6 6 6 7 7 7 8 9 7
9 8 8 8 9 9 9 9 9 9 9 10 11 11 11 13 12 9 6 4 3 2 3 3 5 10 19 18 15 18 16 17 22 15 10 13 13 5 8 6 1 1 1 1 1 1 1 0 1 1 1 1 1 1 1 1 1 1 2 3 2 3 5 5 6 5 4 5 6 7 7 6 5 6 7 6 7 7 8 7 7 7 7 7 7 9 10
8 8 8 9 8 8 8 8 8 9 10 12 12 13 13 14 12 10 8 7 4 3 3 4 6 10 16 15 13 19 22 12 14 12 11 13 12 7 4 5 4 2 1 1 2 1 1 1 3 2 1 1 1 1 2 1 1 2 1 1 2 3 3 4 6 5 4 5 6 6 7 6 5 7 7 7 7 8 8 7 7 7 7 7 7 7 8
9 9 9 9 8 7 7 7 7 10 11 11 11 12 12 12 11 10 10 9 7 5 3 4 6 6 8 11 12 17 21 12 5 7 11 12 10 8 6 4 5 3 3 2 2 3 2 2 3 1 2 2 1 1 1 2 2 1 0 3 5 5 5 7 9 8 6 6 7 7 8 7 7 7 7 7 7 8 7 7 7 7 8 9 7 7 7
10 10 9 9 8 8 8 8 9 11 10 9 8 7 6 5 4 6 8 8 7 5 3 3 4 3 6 9 10 11 15 13 7 9 13 10 5 4 4 3 5 3 2 1 2 2 2 2 1 2 2 2 3 1 2 1 3 1 1 5 6 6 6 7 8 8 7 7 7 8 9 8 7 8 7 8 10 10 8 7 7 7 9 10 8 7 10
10 10 10 8 9 9 9 9 10 11 9 6 4 3 2 1 4 6 5 4 4 3 2 3 3 3 4 5 5 7 12 14 11 11 13 9 3 3 4 2 3 4 2 2 2 1 1 2 1 3 2 2 3 1 2 2 3 2 3 5 6 6 7 7 7 8 9 9 9 9 8 7 7 7 6 7 11 13 9 6 7 7 9 12 11 9 12
10 10 10 8 8 9 8 8 8 9 8 7 8 8 7 4 1 2 2 1 1 2 2 3 3 2 2 2 3 6 10 10 8 7 8 6 3 3 2 0 1 3 2 0 1 1 1 2 1 3 2 1 2 1 1 1 2 4 5 6 6 6 6 6 7 7 7 8 9 9 7 5 5 7 6 7 12 14 12 9 8 7 9 13 14 12 14
9 9 9 8 8 8 7 7 8 9 9 10 13 15 15 13 10 5 4 3 2 3 3 2 2 2 2 1 2 4 3 3 5 5 4 2 2 2 2 2 2 2 2 2 0 1 1 1 2 3 0 1 2 2 1 1 4 7 7 6 6 6 6 7 7 6 5 6 5 6 7 6 7 9 10 10 11 12 13 13 11 8 7 10 11 10 13
8 7 8 8 8 8 8 8 9 9 9 9 10 11 11 10 9 8 7 5 3 3 4 2 1 2 2 1 2 3 3 4 1 5 5 0 3 2 1 1 1 1 0 1 1 0 1 1 2 3 1 1 2 1 1 4 8 9 8 6 5 6 6 6 6 5 5 6 6 6 9 10 10 11 11 9 8 8 8 8 7 6 5 6 6 8 11
8 7 7 8 9 9 10 10 9 7 7 8 8 5 4 2 3 7 9 8 3 1 2 2 1 2 2 1 2 2 3 3 1 4 5 2 1 2 1 1 1 1 1 1 0 1 2 0 2 3 2 2 3 1 2 5 8 8 7 7 6 6 6 5 5 5 6 7 7 7 8 10 9 8 7 7 7 6 5 5 5 5 5 6 6 9 11
9 7 7 7 8 9 9 8 7 6 4 3 3 0 1 1 1 3 7 7 4 2 2 1 1 2 2 2 2 1 1 1 1 3 3 1 1 2 1 0 2 2 1 1 0 2 1 1 2 2 2 3 3 1 1 5 8 8 7 7 6 5 5 6 6 6 6 8 8 7 7 8 8 6 6 7 7 6 5 4 5 6 6 5 5 7 9
8 6 5 5 5 5 5 5 5 6 5 2 3 2 1 2 2 3 4 5 6 5 2 2 2 2 2 2 2 0 1 1 2 2 1 1 1 1 0 1 2 2 1 1 2 2 0 1 0 2 1 2 3 3 2 4 7 7 6 7 6 5 6 7 7 7 7 8 8 6 6 7 7 6 5 5 6 6 4 4 5 5 6 5 5 7 9
4 3 3 4 3 2 2 3 3 4 5 3 3 2 1 2 1 2 3 3 5 6 3 2 3 3 2 2 2 1 2 1 3 3 1 1 1 2 2 1 1 1 1 2 2 1 2 1 0 1 0 1 0 2 2 5 6 5 6 7 6 5 6 7 7 7 7 6 6 5 5 6 7 6 5 4 5 5 5 6 8 8 8 8 9 9 11
2 1 3 4 3 1 2 2 3 4 3 2 0 0 2 2 2 2 2 2 3 3 3 3 4 4 3 2 2 2 1 1 2 2 0 1 1 1 2 2 1 1 2 3 1 1 1 0 0 1 1 0 1 1 2 4 6 5 6 7 6 6 6 6 6 7 7 6 6 6 5 5 6 6 5 5 5 6 7 9 9 9 9 10 10 11 11
3 4 3 2 1 2 4 2 3 3 2 2 2 1 1 2 2 2 2 2 2 2 3 3 3 4 4 3 1 1 2 3 1 2 2 0 0 1 0 1 1 1 2 3 1 1 0 1 1 1 2 2 2 2 1 3 5 5 6 6 7 7 8 6 7 9 9 7 8 9 7 6 7 7 6 6 6 5 5 7 8 8 8 10 10 9 8
2 3 2 2 4 5 3 0 3 2 2 1 2 1 1 1 2 2 2 3 3 2 2 3 4 4 5 5 3 2 2 2 1 1 2 1 1 1 2 1 1 1 2 2 1 1 1 2 2 2 3 4 4 4 3 3 4 5 6 6 7 8 9 7 8 10 10 7 6 8 9 11 11 9 8 8 7 6 7 8 9 9 10 10 9 7 6
5 5 5 7 8 5 2 2 2 1 0 0 0 2 2 2 2 2 2 2 3 2 3 4 4 4 5 6 4 2 2 1 1 1 1 1 0 0 2 2 0 2 2 1 0 1 1 2 2 3 3 4 5 5 5 5 5 5 7 7 6 7 8 7 7 10 13 11 9 10 13 15 15 13 13 13 13 12 12 12 12 12 11 10 9 8 8
6 6 6 6 5 3 2 2 1 1 1 1 1 1 2 2 3 3 2 2 2 2 2 3 3 4 6 6 3 2 2 2 1 1 1 1 0 1 2 2 2 2 1 1 1 1 2 2 2 2 3 4 5 5 5 5 5 6 7 8 8 9 10 10 10 12 15 16 15 14 16 16 15 14 15 14 13 13 13 14 14 13 12 11 11 11 11
5 4 3 3 3 1 1 1 1 1 2 2 2 2 3 4 4 3 3 2 2 2 2 3 3 4 5 5 3 1 2 2 1 1 2 2 2 1 2 2 2 1 0 1 1 2 3 3 2 3 5 4 4 5 5 6 6 7 6 7 9 11 12 14 13 12 13 14 17 17 16 15 15 15 16 15 14 14 15 14 12 11 10 10 12 13 13
3 3 2 0 1 1 1 0 1 2 2 3 3 3 4 4 3 3 2 1 1 2 3 4 4 4 3 3 3 2 2 2 2 2 2 2 2 2 1 1 1 2 2 2 2 3 3 2 3 4 6 6 5 5 6 5 6 6 7 7 8 9 11 11 11 10 10 12 15 15 13 12 12 15 16 15 14 15 14 13 11 10 10 11 12 13 12
3 2 1 0 1 2 1 1 2 2 2 3 4 4 4 4 3 1 2 3 2 2 2 2 3 3 3 2 2 2 2 2 2 2 2 1 2 2 1 0 1 2 2 3 3 3 3 3 4 5 6 6 6 6 6 5 6 6 7 7 7 9 11 11 11 10 11 12 13 12 11 11 13 16 17 16 15 14 14 13 11 10 10 11 11 10 10
2 2 1 1 1 2 2 3 3 3 3 3 3 3 3 4 4 2 2 3 3 3 2 1 0 1 1 1 2 2 2 2 2 2 2 2 1 1 1 0 1 2 3 3 3 2 2 3 5 6 6 7 7 7 6 6 6 7 7 7 8 10 11 11 10 10 12 13 14 13 12 13 15 17 17 16 15 14 13 12 11 10 10 10 9 8 8
1 1 1 1 1 3 4 4 4 5 5 4 3 2 2 3 4 2 1 2 3 4 2 1 1 1 0 1 1 1 2 3 2 1 2 2 1 0 0 1 3 3 3 3 2 2 2 3 5 6 7 7 8 7 6 5 7 8 9 9 9 10 10 10 9 10 12 14 15 14 14 13 14 16 16 16 15 13 11 11 10 9 9 9 8 8 8
2 1 1 2 2 3 2 1 2 4 5 3 3 3 3 2 2 2 1 2 2 3 2 2 2 1 0 0 1 1 1 2 1 1 1 2 2 2 2 3 4 3 2 1 1 2 3 4 5 7 7 7 7 7 6 6 7 8 9 10 11 12 12 11 12 13 15 15 15 15 14 13 12 13 14 14 14 13 11 10 10 10 9 8 8 8 8
2 1 2 3 4 3 1 2 1 3 4 3 3 4 3 1 1 1 1 2 2 3 2 2 2 1 1 1 1 1 1 1 1 2 2 2 3 2 2 3 3 2 1 1 2 2 3 5 6 6 7 7 7 7 7 7 7 8 9 12 13 14 14 15 15 15 15 16 16 15 13 11 11 12 13 13 14 14 13 11 10 9 8 7 7 7 7
2 2 2 4 5 5 3 2 2 3 2 3 4 4 2 1 1 1 2 3 1 2 2 0 1 2 1 1 0 1 1 1 1 2 3 2 2 3 3 3 2 2 2 2 3 3 3 5 6 6 6 7 7 6 7 8 9 10 12 14 15 15 15 16 16 15 16 16 16 14 13 11 11 13 13 13 13 14 13 11 8 8 8 7 6 5 5
2 2 3 4 6 6 5 5 5 4 3 3 4 4 2 1 2 3 5 5 3 2 2 2 2 2 1 1 0 0 1 1 2 3 3 3 2 2 1 1 2 3 3 3 4 3 3 4 5 6 6 7 7 7 9 9 10 12 14 15 15 16 16 16 16 16 17 15 14 14 14 13 11 11 11 10 11 12 12 11 9 8 7 7 6 5 5
Wind_Direction
335 338 341 344 346 350 354 354 355 354 354 360 360 350 303 248 287 287 259 176 171 237 239 233 258 234 257 264 247 188 123 312 293 8 336 329 122 283 307 358 29 173 199 294 319 354 29 9 345 345 4 25 65 94 330 320 304 289 301 351 357 335 334 334 319 320 318 308 301 290 276 264 243 179 205 240 237 181 172 184 185 161 149 131 114 229 227
333 334 338 343 346 350 354 355 357 358 1 4 360 345 307 311 283 297 289 213 170 244 262 238 268 257 264 273 259 147 112 291 292 2 347 332 353 328 328 355 349 52 353 311 334 96 105 288 310 346 349 320 287 53 43 357 328 14 26 8 4 344 343 10 347 330 331 332 329 318 302 307 327 291 223 233 240 225 210 195 121 114 195 167 141 188 221
331 332 335 340 343 347 352 354 356 357 359 3 359 328 292 303 227 274 280 236 181 238 257 251 275 278 289 295 296 303 171 193 183 1 314 287 323 332 316 317 293 277 301 278 253 128 31 9 136 196 289 276 276 107 126 299 320 85 64 20 12 339 315 354 358 305 317 341 323 308 300 309 316 303 274 255 250 244 234 190 114 166 216 182 137 122 112
330 331 334 337 340 344 347 351 354 354 354 357 350 301 267 309 273 275 273 225 201 233 242 253 266 278 293 293 280 267 245 148 134 170 258 256 347 296 297 317 311 306 327 308 336 44 33 355 153 190 315 340 357 334 290 329 70 88 80 46 15 347 318 314 266 238 243 247 254 266 269 279 309 312 302 284 264 249 234 189 166 171 114 20 85 130 127
332 333 334 336 338 340 345 347 349 351 350 350 346 289 244 299 280 290 317 226 230 237 233 236 238 246 258 275 295 278 207 142 155 183 221 97 86 270 290 313 296 308 360 355 12 28 20 265 301 20 21 348 301 315 348 20 37 45 124 158 161 88 314 284 273 262 265 269 270 275 284 290 297 313 329 333 317 277 231 213 216 162 103 59 138 129 124
334 334 334 336 337 338 344 344 344 348 347 344 342 264 246 277 260 306 357 343 278 297 295 284 270 253 246 246 288 263 223 178 175 169 159 126 167 211 225 261 270 299 25 41 35 359 338 335 340 23 25 340 300 321 346 352 323 299 254 165 138 115 252 283 300 301 296 296 291 290 309 314 304 340 19 21 16 13 7 345 311 155 129 142 156 137 133
334 334 333 335 337 338 342 346 346 347 343 337 323 222 272 299 292 333 356 340 312 316 307 303 294 262 240 222 259 256 246 240 249 211 170 174 146 111 319 304 299 323 12 54 82 288 313 67 17 22 358 311 320 349 331 317 316 310 296 99 71 61 297 320 317 303 302 307 304 306 342 3 11 24 27 28 34 35 27 19 20 47 107 126 129 124 127
333 332 333 334 337 340 344 349 351 350 348 343 265 216 286 329 339 339 340 326 316 315 306 307 309 291 249 267 289 293 302 288 287 282 190 164 90 86 318 310 330 342 2 43 313 286 133 128 124 83 264 282 324 38 255 273 322 327 341 68 77 111 26 333 324 321 316 300 292 310 10 44 45 32 22 25 37 40 32 22 21 40 82 98 101 105 96
333 332 331 332 337 342 347 353 355 357 1 360 307 299 336 345 345 340 322 305 319 319 306 305 314 317 324 299 271 282 285 283 293 323 58 58 60 47 316 352 18 340 313 283 287 301 101 127 198 184 204 229 167 155 230 226 291 318 324 83 107 127 225 314 357 8 317 292 305 345 14 55 50 29 19 25 33 42 41 28 20 27 62 82 84 89 75
335 332 329 331 338 341 346 357 360 1 11 18 350 330 347 348 343 343 328 292 307 311 299 301 301 294 304 297 269 238 234 251 260 268 88 97 136 241 303 4 11 305 281 330 345 348 27 6 327 296 240 248 188 170 211 224 218 251 303 73 100 209 235 353 38 18 301 301 332 348 353 48 47 17 21 32 35 49 51 37 30 28 30 46 52 46 34
334 333 330 331 338 339 342 355 3 5 13 23 3 308 332 346 337 334 330 296 297 299 288 292 293 286 304 309 294 265 243 252 250 166 113 101 91 109 83 355 327 310 332 17 10 357 13 355 322 319 312 295 275 222 217 227 229 237 359 45 288 269 162 90 54 323 292 311 334 348 7 58 18 314 14 50 55 62 60 45 36 35 30 25 45 58 60
334 336 335 332 334 338 338 345 360 5 7 10 356 292 312 338 330 311 321 300 297 302 286 282 296 304 319 325 318 302 274 258 223 158 149 114 76 89 99 262 243 242 344 342 353 354 334 262 257 279 283 277 273 266 254 255 288 6 291 236 252 328 79 100 88 183 298 323 354 23 46 89 261 293 20 57 70 80 74 55 41 42 42 41 60 70 71
334 336 334 332 334 339 339 337 348 356 354 356 349 313 318 338 330 295 324 303 283 289 295 298 305 310 319 325 323 315 300 276 175 129 115 89 25 337 113 220 237 52 13 352 25 30 338 289 258 247 281 291 276 277 311 344 342 294 278 261 119 75 91 109 67 11 359 354 11 47 179 239 326 359 33 32 26 64 75 49 28 34 47 48 66 75 75
330 328 325 329 333 338 341 338 337 343 343 345 342 328 326 336 328 310 341 308 277 294 306 303 310 321 326 325 324 322 316 314 111 111 120 140 199 291 281 200 138 64 45 24 38 53 352 299 305 143 334 345 329 312 349 348 285 260 277 289 104 105 107 106 74 32 83 85 358 328 188 297 357 9 5 6 16 41 80 73 25 23 43 55 69 77 74
327 321 311 315 326 333 339 340 337 338 336 335 335 326 318 324 324 310 301 298 298 298 284 269 309 329 329 322 320 324 322 319 127 134 158 142 117 322 300 353 60 52 52 63 48 106 222 268 278 153 113 20 348 310 337 329 285 271 289 289 239 135 148 145 121 83 100 102 40 340 213 242 305 306 311 336 23 19 24 80 46 3 24 65 82 81 77
325 321 307 300 315 329 335 338 341 341 335 330 330 322 312 328 336 320 302 295 289 274 267 305 321 320 313 310 317 326 325 312 253 154 147 125 112 263 269 81 67 34 339 93 100 273 265 263 249 139 136 115 78 317 298 325 301 249 294 309 344 104 119 128 128 136 129 117 109 207 228 254 261 278 299 333 31 12 358 43 35 330 349 62 92 94 87
326 324 314 302 309 324 330 333 337 340 338 336 333 323 309 324 346 333 313 261 257 270 283 303 311 308 307 318 318 319 319 316 324 100 112 108 112 244 239 122 105 76 275 252 203 229 264 258 249 91 130 134 98 116 239 277 267 202 51 7 7 66 94 96 107 155 139 127 131 159 239 260 243 256 284 337 42 25 19 64 210 292 350 61 94 109 114
327 330 326 315 314 321 325 328 331 336 337 337 334 319 301 303 353 338 303 272 274 259 275 299 305 301 319 326 314 311 320 315 309 112 89 82 93 295 276 135 128 177 231 241 173 214 248 262 261 103 175 169 125 128 222 264 254 176 67 29 5 51 62 38 23 53 81 100 119 137 228 235 226 251 272 279 76 51 46 170 207 185 117 86 95 113 130
325 329 323 312 315 322 327 330 330 332 333 336 336 321 299 290 335 320 295 287 278 263 294 309 304 298 322 333 323 326 328 315 307 89 86 91 142 298 301 295 114 136 193 183 38 254 262 272 297 15 116 154 196 190 190 225 182 134 109 83 91 84 55 3 5 61 71 93 103 95 192 229 220 249 272 271 107 105 183 206 193 119 92 70 74 95 113
319 318 308 299 308 318 329 331 327 327 332 336 338 326 306 286 298 294 276 264 280 286 289 285 281 296 324 330 317 319 327 318 311 30 86 199 217 348 337 318 54 78 141 188 211 256 260 235 221 24 122 184 240 268 141 126 78 102 122 112 111 115 101 82 228 150 133 144 91 79 143 248 242 249 297 10 89 148 157 123 77 69 67 54 49 62 83
309 303 291 284 290 302 321 327 324 327 331 334 337 328 311 304 31 336 300 282 285 290 283 287 298 307 306 300 296 294 294 300 311 328 121 121 91 85 56 289 313 54 119 207 202 223 250 104 89 32 312 202 317 335 190 138 63 344 66 105 109 253 145 166 193 179 132 136 126 131 186 268 321 59 88 80 123 152 128 103 83 68 70 68 58 53 67
304 300 286 274 274 285 303 313 317 323 324 328 335 325 300 291 315 339 328 304 274 256 271 288 294 291 286 285 283 277 279 297 325 23 96 84 19 67 71 320 319 325 134 24 359 345 13 36 93 73 346 353 41 303 269 129 122 278 45 95 231 257 148 129 130 123 131 145 149 150 153 71 40 62 89 92 86 86 91 96 93 72 67 76 78 66 56
307 310 298 275 265 271 281 294 309 317 318 323 326 310 295 296 305 327 327 301 270 261 268 274 279 281 281 280 274 271 278 294 331 40 76 88 36 32 15 309 309 314 64 83 97 122 26 356 277 129 71 308 317 322 335 34 118 214 143 88 163 185 119 94 92 106 103 103 118 121 102 70 58 60 64 69 68 65 69 79 86 86 81 80 88 91 80
312 313 305 282 265 266 270 280 297 307 310 313 312 302 299 304 320 343 333 294 258 282 276 266 263 268 274 276 275 275 269 265 295 17 56 80 78 32 297 276 342 360 11 88 120 79 38 322 283 136 140 252 262 347 336 359 138 196 104 71 121 158 132 104 122 140 117 107 128 122 103 93 85 76 71 72 71 66 66 71 74 79 82 86 99 112 115
315 311 304 285 266 268 271 273 287 299 303 301 302 304 303 299 310 340 327 286 261 305 304 288 271 273 282 280 268 263 256 248 260 274 112 114 234 216 193 284 64 109 134 121 83 64 17 283 289 307 168 249 243 236 297 100 173 143 98 87 151 169 153 131 141 143 119 123 141 135 123 122 113 96 90 91 92 91 92 90 83 76 73 75 87 101 116
312 309 302 290 277 273 270 272 283 295 300 299 298 297 292 286 285 287 286 286 277 251 264 284 280 301 324 322 288 275 261 230 234 240 210 218 240 197 129 97 354 82 79 3 79 141 224 258 310 319 321 260 243 248 106 114 288 45 107 187 209 154 120 125 131 120 105 124 141 138 120 106 97 96 96 94 97 99 94 87 83 78 71 63 56 56 66
305 301 297 298 291 276 267 273 284 293 297 295 293 291 286 284 286 278 263 276 294 257 252 275 287 321 331 324 306 307 294 234 219 223 216 223 239 207 122 127 161 49 25 321 276 237 232 292 286 264 216 168 235 261 108 134 288 57 142 220 226 107 108 127 133 131 141 153 153 143 126 114 110 113 109 95 87 84 80 77 74 68 66 69 63 49 46
292 289 293 300 295 278 271 275 283 292 297 295 291 292 286 277 274 266 245 238 261 281 294 299 295 310 316 308 307 322 317 270 203 198 216 221 230 244 214 160 144 157 201 212 253 249 163 209 244 230 159 143 158 157 162 158 28 29 60 29 58 92 125 136 129 132 141 137 133 128 121 122 127 121 114 106 96 87 81 82 83 76 67 65 67 63 53
282 280 290 297 293 285 280 280 285 294 300 302 302 299 287 269 260 255 239 230 245 266 289 294 277 283 315 317 316 325 324 311 209 203 242 236 215 217 219 152 133 187 219 195 221 232 208 219 237 181 129 136 98 57 205 147 85 33 74 83 79 81 89 101 107 109 106 107 113 115 111 115 122 113 101 99 105 104 95 84 81 83 82 76 68 68 70
281 275 284 294 295 293 286 280 286 294 299 309 313 296 274 251 224 220 221 220 231 248 271 293 285 304 332 317 307 317 321 310 273 240 253 251 209 193 228 181 151 179 236 237 218 223 229 230 200 85 91 107 86 359 290 94 97 131 109 90 86 78 70 81 100 108 108 105 105 107 109 114 115 102 89 88 95 97 93 80 70 74 87 89 82 70 72
286 272 275 285 295 296 287 276 282 290 292 301 308 278 259 87 121 151 177 192 193 213 265 276 274 299 313 293 283 300 301 289 266 244 247 249 215 193 242 233 144 158 208 263 240 191 235 256 149 94 73 66 74 26 316 57 105 146 110 90 92 90 81 78 87 99 112 117 113 110 110 112 114 112 111 109 104 101 99 95 87 91 101 99 89 81 82
293 270 264 278 295 299 287 272 274 280 275 260 251 255 268 277 204 122 46 354 183 194 271 279 262 268 279 260 260 273 281 286 287 264 242 229 199 186 192 94 181 187 171 11 303 197 232 262 125 109 107 79 92 94 323 352 148 151 119 99 100 100 96 95 93 95 107 118 122 124 120 111 114 121 121 116 114 116 121 122 118 121 123 114 102 92 90
302 274 260 274 299 303 291 278 275 278 277 266 258 262 268 266 258 267 306 306 260 244 258 267 264 262 276 318 284 266 278 339 344 310 264 183 143 169 166 172 243 249 104 89 235 225 245 232 130 110 151 279 103 99 303 188 137 129 116 107 106 101 97 99 101 98 92 91 103 129 135 124 113 111 107 102 108 119 129 137 148 160 141 122 121 117 106
305 282 261 271 294 300 295 291 286 281 278 269 264 275 282 270 247 234 226 215 224 262 258 248 267 271 276 328 309 313 13 59 34 291 293 11 123 155 176 173 269 284 132 168 203 256 302 265 125 115 164 182 109 109 213 151 132 125 118 116 112 103 98 99 103 104 96 80 77 99 119 119 111 106 105 102 101 111 120 128 146 162 139 114 122 127 115
299 284 258 263 283 293 292 289 281 273 268 258 256 275 308 286 219 205 202 196 189 248 237 212 228 269 283 278 261 304 13 64 165 255 276 283 120 117 76 13 318 251 187 71 106 199 233 267 98 115 144 133 122 186 207 145 133 128 125 125 124 118 114 115 115 112 106 100 96 98 107 113 112 113 122 126 121 118 110 83 63 73 91 93 97 107 111
293 283 263 269 287 294 290 278 256 240 247 270 281 341 88 81 109 167 192 206 220 246 274 269 217 219 244 267 260 282 43 84 194 240 256 278 58 86 112 153 265 244 163 97 203 220 217 42 79 140 161 145 148 211 227 140 133 131 131 134 136 137 138 138 134 124 111 109 115 118 117 118 118 119 126 128 123 121 123 108 83 81 93 98 100 105 109
290 284 273 282 294 282 262 243 224 218 224 290 4 31 113 113 107 146 186 216 221 215 237 302 274 240 247 257 256 334 54 20 269 268 269 92 79 57 184 197 234 259 210 174 223 232 256 8 214 176 173 166 170 186 181 135 129 130 134 137 134 130 131 130 128 126 119 112 116 123 121 115 112 110 113 122 126 126 122 109 97 96 96 92 89 92 94
284 278 266 267 271 260 235 211 189 198 220 265 338 357 172 173 181 195 199 198 189 188 197 238 247 252 273 276 270 295 82 147 222 243 300 18 39 6 342 284 233 275 264 227 232 23 42 23 109 146 139 346 109 139 128 125 129 134 139 137 130 124 128 134 136 136 132 127 126 126 125 124 127 134 142 142 132 123 108 86 77 77 79 77 78 83 86
194 214 256 247 233 256 293 251 159 146 172 209 300 341 192 195 209 216 208 193 184 184 197 215 226 234 239 251 283 314 352 196 201 194 266 318 331 18 348 307 303 312 253 227 222 40 48 192 100 137 200 208 88 81 88 112 121 128 133 133 128 122 125 136 143 140 137 143 148 146 145 148 150 148 134 107 95 98 100 95 86 79 79 81 82 80 77
204 234 245 229 216 314 315 282 169 160 189 199 182 199 245 222 215 209 202 207 205 197 202 207 209 221 227 224 223 249 250 248 210 139 136 203 163 105 127 261 298 309 246 233 265 356 250 181 123 189 224 199 171 187 185 112 107 113 125 130 127 123 124 129 136 136 134 136 141 141 133 118 117 123 124 117 112 109 108 110 110 103 94 91 88 82 77
264 257 259 326 331 323 321 170 162 195 258 219 174 194 216 210 230 239 222 217 215 201 200 205 196 200 217 220 208 198 216 225 192 138 144 134 81 105 116 96 344 312 267 239 252 273 222 176 164 198 209 189 173 178 176 146 128 126 125 120 119 126 129 126 123 125 123 115 116 121 112 96 90 96 111 119 113 97 87 96 106 108 102 98 97 92 84
290 294 307 316 311 293 252 174 151 187 312 51 183 240 225 204 218 228 220 228 231 199 180 197 203 195 195 196 184 140 136 153 119 99 134 124 357 139 122 109 153 241 237 240 293 258 231 212 203 196 184 170 162 161 161 158 153 142 131 124 125 132 131 120 108 109 109 102 92 90 91 86 79 77 84 91 90 82 76 76 80 82 83 82 80 73 62
272 278 289 294 284 244 195 179 156 144 158 145 156 236 234 214 214 218 209 214 242 232 188 184 187 181 181 183 171 88 119 157 148 64 116 139 258 243 167 149 178 221 241 11 37 210 226 232 220 180 158 152 152 156 158 150 139 129 123 124 130 130 121 112 105 101 100 99 95 92 91 91 86 82 84 87 89 87 82 76 72 72 70 67 63 59 52
273 262 254 254 248 188 115 138 192 191 210 208 192 217 229 217 207 212 211 196 201 213 187 167 175 187 181 169 147 98 121 152 146 121 142 143 154 198 198 175 167 188 334 344 234 223 222 218 188 149 146 148 146 146 143 134 127 125 122 124 128 123 113 107 105 102 98 98 98 96 96 96 95 89 83 78 81 85 83 77 73 71 70 68 65 61 55
268 231 199 260 306 339 74 109 220 214 218 219 210 219 235 235 216 212 239 264 231 205 186 177 187 197 180 151 143 148 143 136 150 173 163 137 150 194 212 162 155 176 183 183 212 230 220 187 142 138 148 153 147 136 132 127 126 129 131 129 123 116 110 108 107 105 107 110 110 113 119 122 114 102 92 84 82 84 84 81 78 76 74 71 66 59 53
263 215 161 100 299 276 241 191 197 200 215 227 226 227 246 262 266 279 344 334 318 269 229 200 186 184 175 146 132 138 138 138 155 166 146 132 172 197 198 100 177 208 203 189 203 223 211 170 147 151 157 154 141 132 128 126 127 131 133 131 123 114 113 114 113 115 121 122 117 117 126 126 114 105 100 95 92 90 88 86 83 81 78 73 67 60 55
263 254 232 198 215 230 224 216 222 225 224 231 240 249 276 290 297 326 8 349 323 302 298 322 66 171 178 161 151 152 153 161 173 163 136 130 189 288 21 92 205 225 221 208 206 209 177 139 139 149 151 142 135 133 129 126 128 130 127 122 119 117 117 119 123 129 132 122 107 97 98 104 107 109 108 104 99 97 96 94 91 87 83 78 73 67 61
274 248 235 212 199 218 225 228 239 242 238 237 240 238 257 287 290 291 352 356 328 317 327 22 52 45 183 175 172 158 145 160 179 173 122 118 131 106 139 206 215 217 221 219 198 162 140 136 137 139 138 134 134 137 138 133 132 131 128 126 127 128 130 133 133 130 124 115 107 102 102 101 104 111 114 113 109 105 103 102 99 94 86 80 75 69 63
281 272 252 248 245 244 242 255 278 269 267 274 267 239 222 244 279 287 339 10 339 318 337 39 58 45 253 167 119 113 144 166 178 153 132 159 177 171 192 214 209 197 198 225 185 149 146 140 130 129 134 136 136 138 142 140 134 132 134 137 138 138 137 131 122 115 113 111 109 111 112 111 113 118 121 121 120 118 115 110 103 96 91 86 79 72 66
261 257 253 252 256 262 287 53 354 306 313 324 297 267 241 200 235 278 347 25 358 332 344 38 56 24 340 352 55 134 172 175 156 158 188 206 199 191 207 219 204 177 162 164 157 149 140 135 133 134 137 137 137 140 141 138 137 140 142 140 137 134 131 125 120 118 118 118 118 117 118 122 128 128 123 122 123 120 114 108 103 101 101 98 91 86 83
243 251 246 243 253 270 293 322 303 291 294 289 280 276 259 174 192 181 106 89 35 321 300 141 88 51 25 13 52 133 152 150 158 184 206 213 205 210 224 218 179 154 155 149 142 138 135 135 139 140 138 137 143 147 145 142 146 149 145 138 134 132 130 128 126 122 118 119 124 124 117 113 116 117 118 125 132 127 118 115 119 122 121 118 114 114 113
225 256 260 249 250 257 265 271 272 268 255 257 272 282 279 220 186 156 140 140 167 226 219 171 114 95 114 137 76 68 129 172 191 200 208 211 201 196 204 181 157 159 159 142 129 127 131 134 135 138 142 147 150 147 145 149 153 149 142 138 138 138 137 136 133 127 121 122 127 125 117 112 116 123 133 151 156 142 132 133 136 135 138 146 148 150 152
Height
817 815 814 812 810 808 806 804 802 798 794 791 790 790 787 788 784 769 761 762 762 772 786 783 779 780 773 763 757 756 760 762 761 760 761 762 762 762 764 764 767 771 770 770 772 773 776 778 776 775 773 769 766 760 757 759 759 764 771 769 765 767 773 783 785 772 759 749 739 734 731 732 741 746 742 745 751 753 762 769 767 775 787 791 806 821 806
816 814 813 811 809 808 806 805 803 800 798 796 795 794 789 787 781 768 762 760 761 775 787 784 781 776 766 761 756 752 756 761 763 765 766 765 765 768 768 765 766 768 765 767 770 773 779 781 775 774 776 770 761 756 757 760 762 765 772 771 770 777 781 787 795 795 783 771 763 757 747 745 753 751 743 743 744 743 749 753 758 773 780 777 794 812 800
815 814 813 811 809 808 806 806 804 802 801 800 798 797 792 789 783 772 762 758 762 773 776 776 779 775 768 766 761 757 758 758 759 765 767 763 765 770 769 764 764 764 764 767 767 767 776 780 776 774 774 768 760 758 758 760 762 763 765 763 767 779 784 786 800 813 812 806 800 790 778 769 764 756 746 743 742 741 747 754 763 775 774 768 783 804 801
815 813 812 810 809 808 806 805 804 803 802 799 799 798 794 790 787 780 769 761 763 768 764 766 773 773 773 773 765 761 764 760 756 761 765 763 763 768 767 762 764 765 767 771 771 769 772 776 776 776 776 772 765 760 758 759 760 762 762 761 766 778 783 782 790 799 802 802 795 782 776 776 771 762 753 747 742 738 741 754 765 768 773 781 785 790 795
814 812 811 810 808 807 806 804 804 803 801 799 799 796 792 792 790 784 780 774 770 768 763 764 768 768 770 773 765 760 764 765 762 762 763 762 763 767 767 764 768 772 772 775 778 776 774 775 777 777 777 775 768 761 760 761 762 761 761 761 768 781 788 782 781 782 781 780 776 769 768 770 769 767 764 758 750 742 741 753 757 755 774 796 788 778 790
813 812 811 809 808 807 805 804 803 802 800 799 798 795 791 790 786 777 777 781 781 777 771 766 765 763 762 764 762 761 763 765 767 765 763 761 762 769 772 768 768 770 771 778 783 782 781 781 780 779 779 777 773 769 766 765 764 762 762 762 766 781 789 781 777 779 774 770 769 766 767 767 764 768 772 768 762 758 757 759 752 748 767 788 782 777 787
813 811 810 809 808 806 805 803 802 800 799 797 797 797 790 786 783 777 775 780 782 779 773 766 764 762 760 761 762 761 762 762 762 762 764 765 762 767 776 774 768 766 768 775 783 784 787 790 786 782 782 780 779 780 777 771 765 764 766 766 768 780 786 779 778 781 775 771 769 766 768 771 771 773 775 771 768 769 769 767 758 752 762 772 774 779 782
812 811 810 809 807 806 804 803 801 799 798 795 794 796 791 788 788 784 782 783 779 775 770 767 767 763 760 764 763 759 760 762 759 756 761 767 765 766 775 775 768 768 769 774 780 778 779 786 784 781 784 783 781 783 782 776 771 768 769 769 771 780 786 780 779 787 785 774 769 768 770 776 779 780 777 772 772 776 778 776 768 766 772 775 777 785 786
811 810 810 808 807 807 804 803 802 799 798 796 794 793 791 789 788 786 788 788 781 778 773 769 771 769 764 764 763 760 762 760 759 758 755 760 766 768 771 772 770 770 771 774 776 770 768 774 774 772 777 779 777 778 776 774 777 776 773 772 773 780 786 781 783 799 798 778 771 774 771 774 785 788 784 781 783 787 789 787 782 781 785 785 788 795 795
811 809 809 808 807 806 805 803 802 800 798 798 797 795 791 790 788 784 788 790 783 780 777 772 774 772 765 761 758 758 759 755 757 764 760 755 760 762 764 770 773 775 776 775 771 766 764 767 765 763 766 766 766 769 768 768 774 776 774 775 776 778 785 786 791 806 803 782 776 777 775 787 804 800 790 789 791 791 794 794 791 789 790 796 801 802 796
811 809 808 808 807 806 805 804 803 801 800 800 800 799 795 795 793 787 789 794 787 780 779 777 775 769 761 760 757 753 755 754 755 765 767 760 757 757 761 768 774 778 776 768 762 759 760 761 761 761 762 763 763 764 764 764 767 768 771 777 778 777 783 788 793 804 805 789 778 782 797 817 820 798 783 787 791 794 800 802 800 799 800 802 802 798 794
810 809 808 807 807 806 805 805 804 802 802 802 802 801 797 797 797 792 794 799 792 783 782 779 774 769 764 764 763 756 754 754 752 756 762 762 758 758 761 767 775 776 768 759 757 759 761 763 765 765 765 766 764 762 763 765 765 764 767 773 778 780 784 789 792 799 803 794 791 808 827 826 807 787 781 783 785 788 797 803 802 804 809 807 802 799 798
810 809 808 807 807 806 805 804 804 803 803 802 801 801 799 798 798 794 794 800 796 787 784 779 772 770 769 767 767 762 755 750 748 750 756 760 761 761 761 765 770 767 759 757 760 765 771 774 774 774 772 769 767 767 767 769 769 768 766 767 773 780 785 789 794 799 804 808 814 826 827 810 793 789 786 784 784 788 797 808 808 804 808 808 803 801 800
810 808 808 807 806 806 805 804 804 803 802 802 800 799 798 798 799 796 795 800 798 787 784 784 776 772 772 769 768 766 759 753 752 752 754 758 761 762 760 759 759 756 756 761 766 772 780 783 782 784 783 782 783 783 779 774 771 769 768 767 768 776 783 790 799 805 812 821 825 821 816 811 805 802 796 791 793 793 799 814 815 804 801 804 801 801 802
810 808 807 807 805 805 804 803 803 802 801 801 800 798 798 798 798 798 796 799 801 792 786 785 781 776 775 772 768 768 766 761 758 757 754 754 757 760 757 753 753 754 757 765 773 777 782 787 792 797 798 798 800 798 788 781 775 768 768 769 766 771 780 788 800 809 814 823 831 831 831 829 818 808 799 791 793 793 793 808 816 806 799 800 800 801 803
809 807 806 806 805 804 804 803 803 802 801 800 799 797 798 797 797 797 795 796 801 796 784 778 777 776 775 771 768 770 771 766 761 760 760 759 759 759 755 751 754 757 761 769 775 778 783 789 793 798 800 799 802 802 795 790 786 775 768 769 768 773 778 782 794 808 814 823 835 840 839 831 818 808 798 791 794 793 791 810 825 812 798 798 800 802 803
808 806 805 805 804 804 803 802 802 801 800 800 799 797 797 797 797 797 796 795 798 793 779 774 776 776 775 774 771 769 769 766 761 763 766 765 762 760 756 754 756 759 764 772 777 780 786 790 789 795 799 793 794 801 798 794 794 787 778 777 778 780 784 788 797 806 810 817 828 832 830 822 811 804 798 792 791 792 804 829 834 812 798 799 800 802 804
807 806 804 804 804 803 803 802 801 801 800 799 798 797 796 796 797 797 796 795 796 790 777 773 777 777 775 775 772 768 765 764 763 763 765 763 762 763 761 760 762 764 766 772 780 784 789 789 788 794 797 788 786 796 796 793 796 794 787 787 789 791 795 801 806 810 812 816 823 826 824 815 804 801 796 789 792 806 825 835 822 803 799 799 797 800 803
806 805 804 804 804 803 802 802 801 800 799 799 798 796 795 795 796 796 796 795 795 790 778 773 776 775 771 770 769 767 765 764 762 763 767 769 764 760 760 759 762 767 769 773 780 783 786 789 785 786 792 791 787 789 790 789 791 790 789 792 796 801 807 809 811 816 818 817 819 824 823 809 797 797 791 787 802 822 825 812 800 796 799 796 794 797 799
805 804 804 803 803 802 802 801 800 800 799 798 798 796 794 794 795 796 796 794 794 790 780 774 775 774 771 771 772 770 768 767 763 762 768 771 762 761 772 775 769 770 774 778 783 783 784 789 786 783 790 791 784 782 786 787 785 783 786 792 793 797 809 815 813 813 816 817 819 828 828 808 792 793 794 794 805 814 806 796 796 797 796 795 797 798 798
804 803 803 802 802 802 801 800 800 800 799 798 798 796 794 793 793 795 794 793 794 792 781 773 773 773 771 770 769 768 769 767 762 759 763 765 760 766 782 783 773 772 776 778 782 780 778 783 785 784 785 784 781 783 787 790 788 781 778 785 789 791 801 812 810 805 810 820 822 821 815 800 788 792 798 798 797 796 794 796 799 797 796 799 800 799 799
803 802 801 802 801 800 801 800 799 799 798 798 798 796 795 793 792 793 793 791 792 790 781 774 772 771 769 767 765 764 763 760 756 754 758 762 762 765 773 773 770 770 770 772 779 781 778 780 783 784 786 786 786 785 784 789 795 787 778 784 792 790 788 794 799 798 801 809 810 803 797 793 789 790 794 794 792 791 792 796 798 798 799 799 801 803 803
802 801 800 800 800 799 800 799 798 798 798 797 797 796 795 793 791 792 792 790 788 785 778 773 772 769 765 763 762 761 760 758 756 753 754 761 766 766 768 770 769 766 764 768 777 781 781 781 780 782 787 788 786 787 787 789 793 789 782 783 786 782 778 784 794 797 796 798 798 795 794 795 793 791 792 792 793 793 793 796 799 800 799 799 801 804 804
801 800 799 798 798 798 798 798 797 797 797 796 796 795 794 794 792 792 791 789 788 785 778 771 769 768 764 760 759 759 758 757 757 755 754 758 765 770 770 767 765 767 768 768 768 771 776 779 775 778 786 786 784 788 793 793 789 785 785 786 783 779 779 784 792 798 802 805 801 795 796 798 795 795 795 794 795 796 796 798 800 799 800 801 801 802 804
799 798 797 797 797 797 797 797 796 796 796 795 795 794 793 793 792 793 793 791 789 790 787 778 769 763 760 758 757 757 757 756 756 757 756 756 760 767 769 765 763 767 769 767 765 769 777 778 776 779 784 783 782 786 789 790 786 781 784 790 787 781 781 787 793 796 800 804 799 794 796 797 795 797 799 798 799 799 798 799 800 800 801 801 801 802 804
798 798 796 796 796 796 796 796 795 795 795 794 794 793 793 792 791 792 792 791 789 789 789 783 770 760 759 759 756 754 754 755 755 755 756 757 758 760 762 762 763 765 764 765 767 771 775 777 778 781 783 781 780 781 782 784 782 779 782 784 779 777 781 788 793 796 799 800 797 795 799 801 799 799 800 799 800 801 800 801 802 802 803 803 803 804 804
797 797 796 795 795 795 794 795 795 794 794 793 792 792 791 790 790 790 790 791 792 790 789 784 773 764 761 759 756 754 753 752 752 753 755 756 757 758 759 761 764 766 766 768 770 770 773 777 778 779 779 777 776 776 777 777 777 779 782 777 772 778 785 788 793 802 805 800 795 795 802 807 805 801 801 800 800 801 803 804 804 805 806 806 807 807 807
796 795 795 794 794 794 793 793 793 793 793 792 791 791 789 788 788 789 789 790 792 791 790 786 778 770 766 760 755 753 752 749 749 752 754 754 755 757 758 760 763 766 769 772 773 773 776 778 777 774 774 775 777 777 776 775 778 783 785 779 775 780 784 784 790 800 800 794 791 792 797 803 803 800 800 801 801 803 805 806 807 808 808 808 809 810 810
795 794 794 793 793 793 792 792 792 792 792 791 790 789 787 785 785 787 788 789 790 789 789 787 780 773 768 761 755 753 752 750 750 752 753 754 754 756 758 760 763 766 767 770 773 774 775 773 771 771 771 772 777 780 778 780 788 792 788 780 777 778 778 778 783 790 791 790 790 791 794 799 800 799 800 801 801 804 807 808 808 809 809 810 811 812 812
793 793 793 792 792 792 791 791 792 791 791 791 790 788 785 783 784 786 786 787 788 788 788 789 784 774 766 761 758 756 754 753 753 754 754 753 754 755 757 759 761 763 766 768 770 771 772 770 768 769 768 767 774 782 782 784 792 793 785 779 779 778 778 778 779 784 789 790 789 789 793 796 797 798 800 802 802 804 807 809 810 810 811 812 813 813 814
792 792 791 791 791 791 790 790 790 790 790 790 790 788 786 785 785 786 785 786 787 786 787 788 784 776 769 763 759 757 757 756 756 755 754 754 754 756 757 759 760 762 766 769 768 768 769 769 769 771 771 768 774 781 782 785 793 793 784 781 781 780 780 780 780 781 785 787 788 791 794 795 797 800 802 803 804 806 808 810 811 811 812 813 814 815 816
791 790 790 790 790 789 789 789 788 788 789 789 788 786 784 784 785 785 785 786 786 786 787 788 785 779 773 766 759 757 758 757 756 756 755 754 755 757 758 760 761 762 763 767 769 768 768 768 770 772 773 771 774 780 782 786 793 791 784 781 782 781 781 783 783 783 784 786 788 794 798 798 799 801 803 803 804 806 809 810 811 812 813 814 815 816 817
790 789 789 789 789 788 788 788 787 787 787 786 786 784 782 782 784 784 785 786 786 785 786 786 785 781 774 766 761 759 759 760 763 764 760 756 756 760 762 762 763 763 764 767 770 769 766 766 769 774 775 772 774 781 785 786 786 784 782 782 783 782 782 783 784 785 786 786 788 793 798 800 799 799 801 803 804 806 808 810 811 812 812 814 816 817 818
788 788 788 788 787 787 787 786 785 786 785 784 783 781 780 780 781 782 784 786 786 786 784 783 784 782 774 767 766 763 760 765 772 774 767 759 757 762 765 765 765 767 768 768 768 769 768 766 769 776 777 774 776 784 787 784 781 780 782 783 783 783 784 786 787 788 789 789 789 791 793 796 798 799 802 804 805 807 808 809 810 812 812 814 816 817 818
787 787 787 787 786 786 786 785 785 785 784 783 781 779 779 780 780 781 783 783 784 786 784 780 781 782 779 777 775 768 762 767 776 776 770 762 759 762 766 770 772 772 770 768 769 772 771 768 769 776 779 778 782 787 786 781 780 780 782 784 784 785 787 789 789 790 790 790 792 793 793 796 799 802 804 805 806 808 808 809 810 811 813 814 815 816 818
786 785 785 785 785 785 784 783 784 783 782 782 780 779 779 780 780 780 782 782 783 786 784 779 779 780 781 781 778 769 765 770 774 771 767 765 764 764 767 774 777 773 767 769 773 774 770 767 770 778 781 782 785 785 779 777 779 781 782 783 784 784 787 789 789 790 791 792 793 795 796 798 800 802 804 805 806 807 809 810 811 812 814 815 816 816 818
785 785 784 784 785 784 783 782 781 781 781 780 780 779 780 780 780 781 782 781 781 782 782 783 782 777 775 775 772 767 769 775 776 771 768 768 769 768 769 775 780 776 771 773 776 772 768 768 772 780 783 781 780 778 775 774 777 778 779 782 783 782 785 787 787 789 792 794 795 797 798 799 802 803 804 806 807 808 809 811 811 812 814 815 816 817 818
784 784 784 784 784 783 781 780 779 779 780 779 779 780 780 779 780 782 781 780 780 779 779 782 781 775 771 772 770 767 771 776 777 776 774 771 773 775 775 776 778 778 779 779 773 767 769 774 775 779 783 780 776 775 775 773 774 776 777 779 781 782 784 786 787 790 794 797 798 799 799 801 803 804 805 806 807 808 809 811 812 812 813 815 816 817 818
784 783 783 784 783 781 780 779 779 779 780 779 779 780 779 778 781 782 778 775 776 777 775 777 776 771 770 774 773 769 769 772 774 777 779 777 778 784 788 786 782 782 785 783 773 769 777 783 780 780 784 783 779 776 775 773 773 775 776 777 779 781 783 785 787 789 792 795 797 797 798 800 802 803 805 806 807 808 809 810 812 813 814 815 816 818 819
783 783 782 782 781 780 779 779 779 780 779 778 779 781 780 780 780 778 775 774 775 774 770 769 769 765 765 769 772 770 770 771 771 774 779 778 777 782 790 792 789 788 790 786 776 773 779 785 785 785 786 784 780 777 775 774 775 776 776 777 779 781 783 785 787 788 790 792 793 795 796 798 800 801 803 805 807 808 810 810 812 814 815 816 817 819 820
782 782 781 781 781 780 780 779 779 780 780 779 780 783 784 782 777 772 771 775 775 769 762 761 764 764 762 763 766 769 770 769 767 769 774 777 775 780 788 792 791 793 794 787 778 774 777 783 788 787 782 778 777 776 775 776 776 776 777 778 779 781 783 785 786 788 789 791 793 795 797 798 800 802 803 804 806 809 810 811 812 814 815 817 819 820 821
783 782 782 781 781 780 779 779 780 781 782 784 785 784 782 780 776 771 770 770 766 760 756 756 759 760 757 756 759 763 765 766 765 767 773 778 777 778 785 791 795 798 794 783 776 777 781 784 786 782 775 772 773 774 774 776 776 776 777 779 780 782 784 785 787 789 791 792 794 796 797 800 801 803 804 806 807 809 811 812 814 815 817 818 820 821 822
782 782 783 782 780 778 779 779 779 781 784 787 788 785 780 775 771 768 766 761 755 753 752 751 750 752 753 753 756 760 762 764 765 767 774 780 779 778 782 790 794 792 785 778 779 785 787 785 781 777 773 772 772 772 773 775 775 776 778 779 780 783 784 785 788 791 792 793 796 798 799 801 803 805 807 808 809 811 813 814 816 817 818 819 821 822 823
782 781 782 781 779 778 780 781 780 782 785 786 784 782 779 773 766 763 761 757 752 750 750 748 748 752 752 751 754 760 762 762 764 768 772 776 778 779 783 786 786 784 782 784 786 786 782 776 773 771 771 772 772 772 773 774 774 776 779 780 781 783 785 787 789 792 794 796 798 800 801 803 805 807 809 810 811 813 815 816 818 819 820 821 822 823 824
782 781 782 783 781 780 782 783 782 783 783 780 775 773 770 765 762 760 757 751 747 746 746 744 746 750 750 749 752 758 759 759 764 769 770 772 777 781 780 778 778 779 783 787 787 783 778 773 770 770 770 771 771 771 772 773 775 777 779 781 782 784 786 788 791 793 796 798 800 801 803 805 807 808 810 812 813 815 816 818 820 821 822 822 824 824 825
781 779 779 783 783 782 781 782 782 780 775 768 765 763 761 758 756 756 753 750 748 748 746 743 743 747 749 749 751 754 755 758 764 766 766 771 779 780 775 774 778 780 782 786 787 783 776 771 768 768 769 769 770 771 772 774 775 777 779 781 783 785 787 789 792 795 797 799 801 803 804 806 807 809 812 813 815 817 819 820 821 822 823 824 825 826 826
780 777 776 780 782 780 778 776 774 770 764 760 758 758 757 755 753 752 752 752 751 749 746 742 743 746 746 747 750 753 753 756 762 763 764 771 779 777 774 779 785 783 781 783 783 776 769 765 764 766 767 767 769 771 773 774 776 778 780 782 784 786 788 791 794 796 798 800 802 804 806 807 809 810 812 815 817 819 820 822 823 823 824 825 826 827 827
779 777 778 779 778 775 771 767 763 759 756 755 754 754 754 755 754 753 752 751 751 750 748 745 747 749 748 746 749 753 753 755 761 763 762 769 779 782 783 786 784 777 772 773 772 769 766 764 763 764 765 767 769 771 773 775 776 778 780 783 785 787 790 792 795 797 799 800 803 805 807 808 810 811 813 816 819 820 821 823 824 824 825 826 827 827 828
779 778 777 776 771 765 761 762 762 759 756 754 753 751 752 754 755 754 753 752 753 753 750 748 750 755 753 749 751 756 757 758 763 766 766 770 777 781 782 782 780 774 769 767 765 764 763 761 761 763 766 767 769 771 773 775 777 779 781 783 786 788 790 793 795 797 800 801 804 806 808 809 811 813 815 817 819 821 822 823 824 825 826 827 827 827 828
779 778 776 773 769 763 759 761 764 763 761 760 759 754 752 753 754 754 753 753 754 755 753 752 754 757 756 755 758 763 761 757 760 767 772 771 770 770 773 775 774 770 767 764 762 761 760 759 761 764 766 767 769 772 773 775 778 780 781 784 786 789 791 793 796 798 801 803 805 807 809 811 812 814 815 817 819 821 822 823 824 825 826 827 827 827 828
779 778 774 770 767 763 761 763 766 765 763 763 762 755 751 753 754 753 752 754 757 759 760 758 758 761 763 763 765 765 760 755 758 766 770 766 762 764 769 770 766 764 762 760 758 758 759 759 761 764 766 767 770 772 773 775 778 780 782 784 787 789 792 794 796 799 801 803 805 808 810 812 813 815 816 818 819 821 822 824 825 825 826 827 827 827 827
778 776 770 765 763 762 761 762 762 760 758 758 757 754 752 752 753 751 752 755 759 761 760 757 759 764 767 766 762 759 758 759 762 765 764 758 755 758 764 764 760 759 759 758 757 758 759 760 760 763 765 767 769 771 773 776 778 779 782 785 787 789 792 795 797 799 801 803 806 808 811 813 814 816 817 818 820 821 822 824 825 825 826 827 826 826 826